カタログに戻る

FENGYUN 1C DEB

LostPO
NORAD 36991·DEBRIS·🇨🇳 China

打ち上げ May 10, 1999 から Taiyuan Satellite Launch Center

Loading…

次のパス (今後24時間)

TLE

古いSource: Space-Track

元期: Mar 25, 2024, 14:28 UTC

1 36991U 99025EBX 24085.60280929  .00006900  00000-0  60364-2 0  9994
2 36991  98.1245 217.6807 0271326 284.0357  73.0772 13.70489574818922

AllMySatでFENGYUN 1C DEBをリアルタイム追跡

Download on the App Store